Location: Bratsk-Energetik
(56.3300°N, 101.7600°E)
Time: 23:23:29
(UTC+08:00)

ISS - Pass Details

Date: 10 May 2021
Orbit: 417 x 422 km, 51.6° (Epoch: 12 June)

Event Time Altitude Azimuth Distance (km) Brightness Sun altitude
Exits shadow 04:10:40 - 261° (W) 1,982 -0.8 -6.9°
Reaches altitude 10° 04:11:54 10° 255° (WSW) 1,508 -1.4 -6.8°
Maximum altitude 04:15:00 34° 189° (S) 715 -3.0 -6.5°
Drops below altitude 10° 04:18:07 10° 122° (ESE) 1,508 -0.8 -6.2°
Sets 04:20:19 0° 114° (ESE) 2,372 0.4 -6.0°
